Time,TemperatureF,DewpointF,PressureIn,WindDirection,WindDirectionDegrees,WindSpeedMPH,WindSpeedGustMPH,Humidity,HourlyPrecipIn,Conditions,Clouds,dailyrainin,SoftwareType,DateUTC
2013-08-25 00:01:00,66.5,56.8,30.43,South,180,0.0,0.0,71,0.00,,,0.00,WUHU216HW,2013-08-25 04:01:00,
2013-08-25 00:02:00,66.5,56.8,30.43,South,180,0.0,0.0,71,0.00,,,0.00,WUHU216HW,2013-08-25 04:02:00,
2013-08-25 00:03:00,66.5,56.8,30.43,South,180,0.0,0.0,71,0.00,,,0.00,WUHU216HW,2013-08-25 04:03:00,
2013-08-25 00:08:00,66.3,56.6,30.42,SE,135,0.0,1.7,71,0.00,,,0.00,WUHU216HW,2013-08-25 04:08:00,
2013-08-25 00:13:00,66.2,56.8,30.42,SW,225,2.0,2.0,72,0.00,,,0.00,WUHU216HW,2013-08-25 04:13:00,
2013-08-25 00:18:00,66.0,57.0,30.42,SW,225,0.0,20.1,73,0.00,,,0.00,WUHU216HW,2013-08-25 04:18:00,
2013-08-25 00:23:00,66.0,57.4,30.42,South,180,0.0,20.1,74,0.00,,,0.00,WUHU216HW,2013-08-25 04:23:00,
2013-08-25 00:28:00,66.0,57.4,30.42,SSE,158,0.0,0.0,74,0.00,,,0.00,WUHU216HW,2013-08-25 04:28:00,
2013-08-25 00:33:00,65.8,57.6,30.42,SW,225,0.0,3.3,75,0.00,,,0.00,WUHU216HW,2013-08-25 04:33:00,
2013-08-25 00:38:00,65.8,58.0,30.42,SSE,158,0.0,3.3,76,0.00,,,0.00,WUHU216HW,2013-08-25 04:38:00,
2013-08-25 00:43:00,65.8,58.0,30.42,SW,225,0.0,0.0,76,0.00,,,0.00,WUHU216HW,2013-08-25 04:43:00,
2013-08-25 00:49:00,65.4,58.4,30.42,SSE,158,0.0,3.1,78,0.00,,,0.00,WUHU216HW,2013-08-25 04:49:00,
2013-08-25 00:54:00,65.4,58.4,30.42,South,180,0.0,3.1,78,0.00,,,0.00,WUHU216HW,2013-08-25 04:54:00,
2013-08-25 00:59:00,65.4,58.8,30.42,SSW,203,3.1,3.1,79,0.00,,,0.00,WUHU216HW,2013-08-25 04:59:00,
2013-08-25 01:04:00,65.4,58.8,30.42,SSE,158,0.0,3.1,79,0.00,,,0.00,WUHU216HW,2013-08-25 05:04:00,
2013-08-25 01:09:00,65.3,58.6,30.43,South,180,0.0,0.8,79,0.00,,,0.00,WUHU216HW,2013-08-25 05:09:00,
2013-08-25 01:14:00,65.1,58.4,30.42,South,180,0.0,0.0,79,0.00,,,0.00,WUHU216HW,2013-08-25 05:14:00,
2013-08-25 01:19:00,65.1,58.8,30.43,West,270,4.6,4.6,80,0.00,,,0.00,WUHU216HW,2013-08-25 05:19:00,
2013-08-25 01:24:00,65.1,59.1,30.42,WSW,248,0.0,6.2,81,0.00,,,0.00,WUHU216HW,2013-08-25 05:24:00,
2013-08-25 01:29:00,65.1,59.1,30.42,South,180,0.0,6.2,81,0.00,,,0.00,WUHU216HW,2013-08-25 05:29:00,
2013-08-25 01:34:00,65.1,59.1,30.42,South,180,0.8,0.8,81,0.00,,,0.00,WUHU216HW,2013-08-25 05:34:00,
2013-08-25 01:39:00,65.1,59.1,30.42,South,180,0.0,0.8,81,0.00,,,0.00,WUHU216HW,2013-08-25 05:39:00,
2013-08-25 01:44:00,65.1,59.1,30.41,South,180,0.0,0.0,81,0.00,,,0.00,WUHU216HW,2013-08-25 05:44:00,
2013-08-25 01:49:00,65.1,59.1,30.42,WSW,248,0.0,0.6,81,0.00,,,0.00,WUHU216HW,2013-08-25 05:49:00,
2013-08-25 01:54:00,64.9,59.3,30.42,West,270,0.0,0.6,82,0.00,,,0.00,WUHU216HW,2013-08-25 05:54:00,
2013-08-25 01:59:00,64.9,59.3,30.42,SW,225,0.0,0.0,82,0.00,,,0.00,WUHU216HW,2013-08-25 05:59:00,
2013-08-25 02:05:00,64.9,59.3,30.42,SSE,158,2.4,2.4,82,0.00,,,0.00,WUHU216HW,2013-08-25 06:05:00,
2013-08-25 02:10:00,64.9,59.6,30.42,SSW,203,0.0,3.8,83,0.00,,,0.00,WUHU216HW,2013-08-25 06:10:00,
2013-08-25 02:15:00,65.1,59.8,30.42,SSW,203,0.0,3.8,83,0.00,,,0.00,WUHU216HW,2013-08-25 06:15:00,
2013-08-25 02:20:00,65.1,59.8,30.42,South,180,0.0,3.8,83,0.00,,,0.00,WUHU216HW,2013-08-25 06:20:00,
2013-08-25 02:25:00,65.1,59.8,30.42,South,180,1.3,2.6,83,0.00,,,0.00,WUHU216HW,2013-08-25 06:25:00,
2013-08-25 02:30:00,64.9,59.6,30.42,SSE,158,0.0,1.3,83,0.00,,,0.00,WUHU216HW,2013-08-25 06:30:00,
2013-08-25 02:35:00,64.9,59.6,30.42,ESE,113,0.0,0.0,83,0.00,,,0.00,WUHU216HW,2013-08-25 06:35:00,
2013-08-25 02:40:00,64.5,59.2,30.42,SSW,203,1.1,1.5,83,0.00,,,0.00,WUHU216HW,2013-08-25 06:40:00,
2013-08-25 02:45:00,64.5,59.2,30.42,SW,225,0.0,1.5,83,0.00,,,0.00,WUHU216HW,2013-08-25 06:45:00,
2013-08-25 02:50:00,64.5,59.2,30.42,ESE,113,0.0,1.1,83,0.00,,,0.00,WUHU216HW,2013-08-25 06:50:00,
2013-08-25 02:55:00,64.4,59.4,30.42,SW,225,0.0,0.0,84,0.00,,,0.00,WUHU216HW,2013-08-25 06:55:00,
2013-08-25 03:00:00,64.2,59.2,30.42,SW,225,0.0,1.7,84,0.00,,,0.00,WUHU216HW,2013-08-25 07:00:00,
2013-08-25 03:05:00,64.2,59.2,30.42,SW,225,0.0,1.7,84,0.00,,,0.00,WUHU216HW,2013-08-25 07:05:00,
2013-08-25 03:10:00,64.2,59.2,30.42,WNW,293,0.0,5.3,84,0.00,,,0.00,WUHU216HW,2013-08-25 07:10:00,
2013-08-25 03:15:00,64.2,59.2,30.42,WSW,248,0.0,5.3,84,0.00,,,0.00,WUHU216HW,2013-08-25 07:15:00,
2013-08-25 03:21:00,64.2,58.9,30.43,WSW,248,0.0,0.0,83,0.00,,,0.00,WUHU216HW,2013-08-25 07:21:00,
2013-08-25 03:26:00,64.0,58.7,30.43,WNW,293,0.0,0.0,83,0.00,,,0.00,WUHU216HW,2013-08-25 07:26:00,
2013-08-25 03:31:00,63.6,58.4,30.43,WNW,293,0.0,0.0,83,0.00,,,0.00,WUHU216HW,2013-08-25 07:31:00,
2013-08-25 03:36:00,63.3,58.3,30.44,WSW,248,0.0,0.0,84,0.00,,,0.00,WUHU216HW,2013-08-25 07:36:00,
2013-08-25 03:41:00,63.1,58.2,30.43,NNW,338,0.0,0.0,84,0.00,,,0.00,WUHU216HW,2013-08-25 07:41:00,
2013-08-25 03:46:00,62.7,57.8,30.44,South,180,0.0,0.0,84,0.00,,,0.00,WUHU216HW,2013-08-25 07:46:00,
2013-08-25 03:51:00,62.4,57.4,30.43,West,270,0.0,0.0,84,0.00,,,0.00,WUHU216HW,2013-08-25 07:51:00,
2013-08-25 03:56:00,62.2,57.3,30.43,NE,45,0.0,0.0,84,0.00,,,0.00,WUHU216HW,2013-08-25 07:56:00,
2013-08-25 04:01:00,62.2,57.6,30.43,West,270,0.0,0.0,85,0.00,,,0.00,WUHU216HW,2013-08-25 08:01:00,
2013-08-25 04:06:00,62.2,57.6,30.43,NNE,23,0.0,0.0,85,0.00,,,0.00,WUHU216HW,2013-08-25 08:06:00,
2013-08-25 04:11:00,62.4,57.8,30.44,North,0,0.0,0.0,85,0.00,,,0.00,WUHU216HW,2013-08-25 08:11:00,
2013-08-25 04:16:00,62.0,57.4,30.43,West,270,0.0,0.0,85,0.00,,,0.00,WUHU216HW,2013-08-25 08:16:00,
2013-08-25 04:21:00,62.0,57.4,30.44,WNW,293,0.0,0.0,85,0.00,,,0.00,WUHU216HW,2013-08-25 08:21:00,
2013-08-25 04:26:00,61.8,57.3,30.43,SSE,158,2.2,2.2,85,0.00,,,0.00,WUHU216HW,2013-08-25 08:26:00,
2013-08-25 04:31:00,61.8,57.3,30.43,SSE,158,0.0,2.2,85,0.00,,,0.00,WUHU216HW,2013-08-25 08:31:00,
2013-08-25 04:37:00,62.0,57.8,30.43,West,270,0.0,5.3,86,0.00,,,0.00,WUHU216HW,2013-08-25 08:37:00,
2013-08-25 04:42:00,61.8,57.3,30.43,WSW,248,0.0,5.3,85,0.00,,,0.00,WUHU216HW,2013-08-25 08:42:00,
2013-08-25 04:47:00,61.7,57.1,30.43,SSW,203,0.0,2.0,85,0.00,,,0.00,WUHU216HW,2013-08-25 08:47:00,
2013-08-25 04:52:00,61.8,57.3,30.43,SSE,158,0.0,2.6,85,0.00,,,0.00,WUHU216HW,2013-08-25 08:52:00,
2013-08-25 04:57:00,61.8,57.3,30.43,SSW,203,0.0,2.6,85,0.00,,,0.00,WUHU216HW,2013-08-25 08:57:00,
2013-08-25 05:02:00,61.7,57.1,30.43,SW,225,0.0,0.0,85,0.00,,,0.00,WUHU216HW,2013-08-25 09:02:00,
2013-08-25 05:07:00,61.7,57.1,30.43,SSE,158,0.0,0.0,85,0.00,,,0.00,WUHU216HW,2013-08-25 09:07:00,
2013-08-25 05:12:00,61.5,56.9,30.43,SSW,203,0.0,0.0,85,0.00,,,0.00,WUHU216HW,2013-08-25 09:12:00,
2013-08-25 05:17:00,61.3,56.8,30.43,West,270,0.0,0.0,85,0.00,,,0.00,WUHU216HW,2013-08-25 09:17:00,
2013-08-25 05:22:00,61.1,56.6,30.43,South,180,0.0,0.0,85,0.00,,,0.00,WUHU216HW,2013-08-25 09:22:00,
2013-08-25 05:27:00,60.9,56.4,30.43,SW,225,0.0,0.0,85,0.00,,,0.00,WUHU216HW,2013-08-25 09:27:00,
2013-08-25 05:32:00,60.6,56.4,30.42,SSE,158,0.0,0.0,86,0.00,,,0.00,WUHU216HW,2013-08-25 09:32:00,
2013-08-25 05:37:00,60.6,56.4,30.42,SSW,203,0.0,0.8,86,0.00,,,0.00,WUHU216HW,2013-08-25 09:37:00,
2013-08-25 05:42:00,60.6,56.4,30.42,WSW,248,5.8,5.8,86,0.00,,,0.00,WUHU216HW,2013-08-25 09:42:00,
2013-08-25 05:47:00,60.8,56.6,30.42,WSW,248,0.0,5.8,86,0.00,,,0.00,WUHU216HW,2013-08-25 09:47:00,
2013-08-25 05:53:00,60.9,57.1,30.43,SSE,158,2.4,5.8,87,0.00,,,0.00,WUHU216HW,2013-08-25 09:53:00,
2013-08-25 05:58:00,60.9,57.1,30.41,South,180,0.0,2.4,87,0.00,,,0.00,WUHU216HW,2013-08-25 09:58:00,
2013-08-25 06:03:00,60.9,57.1,30.41,South,180,0.0,0.0,87,0.00,,,0.00,WUHU216HW,2013-08-25 10:03:00,
2013-08-25 06:08:00,60.9,57.1,30.42,SW,225,0.0,2.2,87,0.00,,,0.00,WUHU216HW,2013-08-25 10:08:00,
2013-08-25 06:13:00,60.9,57.1,30.43,SSE,158,0.0,2.2,87,0.00,,,0.00,WUHU216HW,2013-08-25 10:13:00,
2013-08-25 06:18:00,60.6,56.7,30.42,SSW,203,0.0,0.0,87,0.00,,,0.00,WUHU216HW,2013-08-25 10:18:00,
2013-08-25 06:23:00,60.6,56.7,30.43,WSW,248,0.0,0.0,87,0.00,,,0.00,WUHU216HW,2013-08-25 10:23:00,
2013-08-25 06:28:00,60.4,56.5,30.42,West,270,0.0,0.0,87,0.00,,,0.00,WUHU216HW,2013-08-25 10:28:00,
2013-08-25 06:33:00,60.4,56.5,30.42,ESE,113,0.0,0.0,87,0.00,,,0.00,WUHU216HW,2013-08-25 10:33:00,
2013-08-25 06:38:00,60.2,56.4,30.43,NNE,23,0.0,0.0,87,0.00,,,0.00,WUHU216HW,2013-08-25 10:38:00,
2013-08-25 06:43:00,60.2,56.7,30.43,WNW,293,0.0,0.0,88,0.00,,,0.00,WUHU216HW,2013-08-25 10:43:00,
2013-08-25 06:48:00,60.0,56.5,30.42,SE,135,0.0,0.0,88,0.00,,,0.00,WUHU216HW,2013-08-25 10:48:00,
2013-08-25 06:53:00,60.0,56.8,30.42,WSW,248,0.0,3.1,89,0.00,,,0.00,WUHU216HW,2013-08-25 10:53:00,
2013-08-25 06:58:00,60.4,57.2,30.42,WSW,248,0.0,3.1,89,0.00,,,0.00,WUHU216HW,2013-08-25 10:58:00,
2013-08-25 07:03:00,60.6,57.4,30.42,WSW,248,0.0,0.0,89,0.00,,,0.00,WUHU216HW,2013-08-25 11:03:00,
2013-08-25 07:08:00,60.6,57.4,30.43,ENE,68,0.0,0.0,89,0.00,,,0.00,WUHU216HW,2013-08-25 11:08:00,
2013-08-25 07:14:00,60.9,57.7,30.43,West,270,0.0,4.6,89,0.00,,,0.00,WUHU216HW,2013-08-25 11:14:00,
2013-08-25 07:19:00,61.7,58.8,30.43,SSW,203,0.0,4.6,90,0.00,,,0.00,WUHU216HW,2013-08-25 11:19:00,
2013-08-25 07:24:00,62.4,59.1,30.43,WSW,248,0.0,0.0,89,0.00,,,0.00,WUHU216HW,2013-08-25 11:24:00,
2013-08-25 07:29:00,62.9,59.7,30.43,NNW,338,0.0,0.0,89,0.00,,,0.00,WUHU216HW,2013-08-25 11:29:00,
2013-08-25 07:34:00,63.6,60.4,30.43,SSE,158,0.0,0.0,89,0.00,,,0.00,WUHU216HW,2013-08-25 11:34:00,
2013-08-25 07:39:00,64.0,60.4,30.43,North,0,0.0,2.4,88,0.00,,,0.00,WUHU216HW,2013-08-25 11:39:00,
2013-08-25 07:44:00,64.5,60.9,30.43,SSW,203,0.0,2.4,88,0.00,,,0.00,WUHU216HW,2013-08-25 11:44:00,
2013-08-25 07:49:00,65.4,61.1,30.43,NNW,338,0.0,0.0,86,0.00,,,0.00,WUHU216HW,2013-08-25 11:49:00,
2013-08-25 07:54:00,65.8,61.1,30.43,SSW,203,2.4,2.4,85,0.00,,,0.00,WUHU216HW,2013-08-25 11:54:00,
2013-08-25 07:59:00,66.5,61.2,30.43,NNE,23,2.9,2.9,83,0.00,,,0.00,WUHU216HW,2013-08-25 11:59:00,
2013-08-25 08:04:00,66.9,61.2,30.43,NNE,23,0.0,2.9,82,0.00,,,0.00,WUHU216HW,2013-08-25 12:04:00,
2013-08-25 08:09:00,67.1,60.8,30.43,West,270,0.0,7.3,80,0.00,,,0.00,WUHU216HW,2013-08-25 12:09:00,
2013-08-25 08:14:00,67.2,60.9,30.44,SE,135,0.0,7.3,80,0.00,,,0.00,WUHU216HW,2013-08-25 12:14:00,
2013-08-25 08:19:00,67.4,60.7,30.43,SSW,203,3.8,3.8,79,0.00,,,0.00,WUHU216HW,2013-08-25 12:19:00,
2013-08-25 08:25:00,67.6,60.5,30.43,WSW,248,0.0,9.8,78,0.00,,,0.00,WUHU216HW,2013-08-25 12:25:00,
2013-08-25 08:30:00,68.1,61.1,30.43,South,180,0.0,9.8,78,0.00,,,0.00,WUHU216HW,2013-08-25 12:30:00,
2013-08-25 08:35:00,68.7,61.5,30.43,SW,225,0.0,0.0,78,0.00,,,0.00,WUHU216HW,2013-08-25 12:35:00,
2013-08-25 08:40:00,69.2,61.7,30.43,SSW,203,0.0,0.0,77,0.00,,,0.00,WUHU216HW,2013-08-25 12:40:00,
2013-08-25 08:45:00,69.8,61.4,30.43,SSW,203,0.0,0.0,75,0.00,,,0.00,WUHU216HW,2013-08-25 12:45:00,
2013-08-25 08:50:00,69.9,61.2,30.43,SSE,158,4.0,4.0,74,0.00,,,0.00,WUHU216HW,2013-08-25 12:50:00,
2013-08-25 08:55:00,70.1,61.0,30.42,South,180,2.0,6.2,73,0.00,,,0.00,WUHU216HW,2013-08-25 12:55:00,
2013-08-25 09:00:00,70.3,60.8,30.42,SW,225,0.0,6.2,72,0.00,,,0.00,WUHU216HW,2013-08-25 13:00:00,
2013-08-25 09:05:00,71.4,61.5,30.42,SSE,158,0.0,3.8,71,0.00,,,0.00,WUHU216HW,2013-08-25 13:05:00,
2013-08-25 09:10:00,71.7,61.0,30.42,WSW,248,0.0,6.9,69,0.00,,,0.00,WUHU216HW,2013-08-25 13:10:00,
2013-08-25 09:15:00,71.9,61.2,30.41,SSW,203,0.0,7.6,69,0.00,,,0.00,WUHU216HW,2013-08-25 13:15:00,
2013-08-25 09:20:00,72.1,60.9,30.41,SW,225,2.9,7.6,68,0.00,,,0.00,WUHU216HW,2013-08-25 13:20:00,
2013-08-25 09:25:00,72.1,60.9,30.41,SSE,158,0.0,7.6,68,0.00,,,0.00,WUHU216HW,2013-08-25 13:25:00,
2013-08-25 09:30:00,72.3,60.7,30.40,SE,135,8.9,8.9,67,0.00,,,0.00,WUHU216HW,2013-08-25 13:30:00,
2013-08-25 09:35:00,73.2,61.1,30.40,SSE,158,0.0,10.5,66,0.00,,,0.00,WUHU216HW,2013-08-25 13:35:00,
2013-08-25 09:41:00,74.3,61.3,30.40,SSW,203,7.1,10.5,64,0.00,,,0.00,WUHU216HW,2013-08-25 13:41:00,
2013-08-25 09:46:00,75.3,61.8,30.40,SSE,158,6.7,7.1,63,0.00,,,0.00,WUHU216HW,2013-08-25 13:46:00,
2013-08-25 09:51:00,76.8,62.3,30.40,SSW,203,4.4,7.3,61,0.00,,,0.00,WUHU216HW,2013-08-25 13:51:00,
2013-08-25 09:56:00,78.6,63.1,30.40,NW,315,0.0,7.3,59,0.00,,,0.00,WUHU216HW,2013-08-25 13:56:00,
2013-08-25 10:01:00,80.4,63.2,30.40,South,180,3.5,4.6,56,0.00,,,0.00,WUHU216HW,2013-08-25 14:01:00,
2013-08-25 10:06:00,80.4,61.6,30.40,SW,225,1.5,6.7,53,0.00,,,0.00,WUHU216HW,2013-08-25 14:06:00,
2013-08-25 10:11:00,78.9,61.4,30.39,NNW,338,1.7,6.7,55,0.00,,,0.00,WUHU216HW,2013-08-25 14:11:00,
2013-08-25 10:16:00,78.0,61.0,30.40,South,180,0.0,3.5,56,0.00,,,0.00,WUHU216HW,2013-08-25 14:16:00,
2013-08-25 10:21:00,76.8,60.3,30.39,SSW,203,3.5,3.5,57,0.00,,,0.00,WUHU216HW,2013-08-25 14:21:00,
2013-08-25 10:26:00,76.1,60.2,30.38,SSE,158,0.0,3.5,58,0.00,,,0.00,WUHU216HW,2013-08-25 14:26:00,
2013-08-25 10:31:00,75.3,59.5,30.38,WSW,248,0.0,3.8,58,0.00,,,0.00,WUHU216HW,2013-08-25 14:31:00,
2013-08-25 10:36:00,75.0,59.7,30.38,West,270,0.0,6.2,59,0.00,,,0.00,WUHU216HW,2013-08-25 14:36:00,
2013-08-25 10:41:00,75.0,60.2,30.37,SSW,203,4.2,6.2,60,0.00,,,0.00,WUHU216HW,2013-08-25 14:41:00,
2013-08-25 10:46:00,75.5,61.1,30.37,SSE,158,0.0,4.2,61,0.00,,,0.00,WUHU216HW,2013-08-25 14:46:00,
2013-08-25 10:51:00,75.9,61.0,30.37,SSW,203,0.0,0.0,60,0.00,,,0.00,WUHU216HW,2013-08-25 14:51:00,
2013-08-25 10:57:00,76.6,61.0,30.37,WSW,248,0.0,3.5,60,0.00,,,0.00,WUHU216HW,2013-08-25 14:57:00,
2013-08-25 11:02:00,80.7,64.0,30.37,ESE,113,0.0,3.5,57,0.00,,,0.00,WUHU216HW,2013-08-25 15:02:00,
2013-08-25 11:07:00,84.5,65.0,30.37,South,180,5.1,5.1,52,0.00,,,0.00,WUHU216HW,2013-08-25 15:07:00,
2013-08-25 11:12:00,86.0,64.0,30.36,SSW,203,2.4,6.0,48,0.00,,,0.00,WUHU216HW,2013-08-25 15:12:00,
2013-08-25 11:17:00,87.8,64.4,30.36,SW,225,5.8,6.9,46,0.00,,,0.00,WUHU216HW,2013-08-25 15:17:00,
2013-08-25 11:22:00,87.6,64.2,30.36,SW,225,3.3,6.9,46,0.00,,,0.00,WUHU216HW,2013-08-25 15:22:00,
2013-08-25 11:27:00,87.6,64.2,30.35,ESE,113,0.0,5.8,46,0.00,,,0.00,WUHU216HW,2013-08-25 15:27:00,
2013-08-25 11:32:00,87.2,63.2,30.35,SSE,158,8.2,8.2,45,0.00,,,0.00,WUHU216HW,2013-08-25 15:32:00,
2013-08-25 11:37:00,88.3,64.8,30.36,SW,225,4.0,8.2,46,0.00,,,0.00,WUHU216HW,2013-08-25 15:37:00,
2013-08-25 11:42:00,87.6,64.2,30.36,SSE,158,1.5,4.0,46,0.00,,,0.00,WUHU216HW,2013-08-25 15:42:00,
2013-08-25 11:47:00,86.7,63.4,30.35,SW,225,5.1,5.1,46,0.00,,,0.00,WUHU216HW,2013-08-25 15:47:00,
2013-08-25 11:52:00,84.2,62.4,30.35,SW,225,6.4,6.4,48,0.00,,,0.00,WUHU216HW,2013-08-25 15:52:00,
2013-08-25 11:57:00,82.9,61.7,30.36,SE,135,0.0,6.4,49,0.00,,,0.00,WUHU216HW,2013-08-25 15:57:00,
2013-08-25 12:02:00,82.0,61.5,30.35,SSE,158,0.0,6.4,50,0.00,,,0.00,WUHU216HW,2013-08-25 16:02:00,
2013-08-25 12:08:00,81.1,61.7,30.36,SSW,203,0.0,0.0,52,0.00,,,0.00,WUHU216HW,2013-08-25 16:08:00,
2013-08-25 12:13:00,81.1,60.7,30.36,WNW,293,0.0,3.5,50,0.00,,,0.00,WUHU216HW,2013-08-25 16:13:00,
2013-08-25 12:18:00,80.7,60.9,30.35,South,180,1.3,5.3,51,0.00,,,0.00,WUHU216HW,2013-08-25 16:18:00,
2013-08-25 12:23:00,80.6,60.7,30.35,NNE,23,3.8,5.5,51,0.00,,,0.00,WUHU216HW,2013-08-25 16:23:00,
2013-08-25 12:28:00,80.7,60.4,30.34,South,180,6.7,6.7,50,0.00,,,0.00,WUHU216HW,2013-08-25 16:28:00,
2013-08-25 12:33:00,80.6,60.7,30.35,WSW,248,0.0,6.7,51,0.00,,,0.00,WUHU216HW,2013-08-25 16:33:00,
2013-08-25 12:38:00,81.1,61.7,30.34,East,90,0.0,6.7,52,0.00,,,0.00,WUHU216HW,2013-08-25 16:38:00,
2013-08-25 12:43:00,82.0,62.0,30.33,SSW,203,2.4,2.4,51,0.00,,,0.00,WUHU216HW,2013-08-25 16:43:00,
2013-08-25 12:48:00,83.3,62.1,30.33,SSE,158,0.0,2.4,49,0.00,,,0.00,WUHU216HW,2013-08-25 16:48:00,
2013-08-25 12:53:00,85.1,62.6,30.33,SW,225,0.0,6.2,47,0.00,,,0.00,WUHU216HW,2013-08-25 16:53:00,
2013-08-25 12:58:00,85.8,63.2,30.33,SSW,203,0.0,6.2,47,0.00,,,0.00,WUHU216HW,2013-08-25 16:58:00,
2013-08-25 13:03:00,85.2,62.7,30.33,SSW,203,6.2,6.2,47,0.00,,,0.00,WUHU216HW,2013-08-25 17:03:00,
2013-08-25 13:08:00,84.0,62.8,30.32,South,180,4.2,6.2,49,0.00,,,0.00,WUHU216HW,2013-08-25 17:08:00,
2013-08-25 13:13:00,83.1,62.6,30.31,SSE,158,0.0,6.2,50,0.00,,,0.00,WUHU216HW,2013-08-25 17:13:00,
2013-08-25 13:18:00,82.9,62.9,30.31,SSW,203,8.9,8.9,51,0.00,,,0.00,WUHU216HW,2013-08-25 17:18:00,
2013-08-25 13:24:00,82.2,62.7,30.30,South,180,9.1,9.1,52,0.00,,,0.00,WUHU216HW,2013-08-25 17:24:00,
2013-08-25 13:29:00,82.0,63.1,30.30,SSW,203,0.0,9.1,53,0.00,,,0.00,WUHU216HW,2013-08-25 17:29:00,
2013-08-25 13:34:00,82.0,63.1,30.30,SSE,158,0.0,5.8,53,0.00,,,0.00,WUHU216HW,2013-08-25 17:34:00,
2013-08-25 13:39:00,82.2,63.8,30.30,SSW,203,0.0,5.3,54,0.00,,,0.00,WUHU216HW,2013-08-25 17:39:00,
2013-08-25 13:44:00,82.2,63.8,30.30,WSW,248,0.0,2.2,54,0.00,,,0.00,WUHU216HW,2013-08-25 17:44:00,
2013-08-25 13:49:00,82.7,64.3,30.30,South,180,4.4,6.0,54,0.00,,,0.00,WUHU216HW,2013-08-25 17:49:00,
2013-08-25 13:54:00,82.9,64.5,30.29,South,180,8.0,8.2,54,0.00,,,0.00,WUHU216HW,2013-08-25 17:54:00,
2013-08-25 13:59:00,83.1,64.6,30.28,WSW,248,0.0,8.2,54,0.00,,,0.00,WUHU216HW,2013-08-25 17:59:00,
2013-08-25 14:04:00,83.8,64.8,30.29,SSW,203,8.5,8.5,53,0.00,,,0.00,WUHU216HW,2013-08-25 18:04:00,
2013-08-25 14:09:00,85.6,66.0,30.29,SSE,158,3.3,8.5,52,0.00,,,0.00,WUHU216HW,2013-08-25 18:09:00,
2013-08-25 14:14:00,87.0,66.2,30.29,SSW,203,3.1,3.3,50,0.00,,,0.00,WUHU216HW,2013-08-25 18:14:00,
2013-08-25 14:19:00,89.7,67.4,30.28,SSW,203,7.6,7.6,48,0.00,,,0.00,WUHU216HW,2013-08-25 18:19:00,
2013-08-25 14:24:00,88.8,66.5,30.28,South,180,8.9,9.8,48,0.00,,,0.00,WUHU216HW,2013-08-25 18:24:00,
2013-08-25 14:29:00,89.2,66.9,30.28,East,90,4.0,9.8,48,0.00,,,0.00,WUHU216HW,2013-08-25 18:29:00,
2013-08-25 14:35:00,90.1,67.0,30.29,SSE,158,5.8,8.9,47,0.00,,,0.00,WUHU216HW,2013-08-25 18:35:00,
2013-08-25 14:40:00,89.7,66.7,30.29,NW,315,0.0,5.8,47,0.00,,,0.00,WUHU216HW,2013-08-25 18:40:00,
2013-08-25 14:45:00,89.7,67.4,30.28,South,180,1.7,1.7,48,0.00,,,0.00,WUHU216HW,2013-08-25 18:45:00,
2013-08-25 14:50:00,90.5,66.7,30.28,SE,135,2.0,2.0,46,0.00,,,0.00,WUHU216HW,2013-08-25 18:50:00,
2013-08-25 14:55:00,90.1,67.0,30.28,SSW,203,0.0,3.1,47,0.00,,,0.00,WUHU216HW,2013-08-25 18:55:00,
2013-08-25 15:00:00,91.0,67.8,30.27,South,180,2.4,3.1,47,0.00,,,0.00,WUHU216HW,2013-08-25 19:00:00,
2013-08-25 15:05:00,90.5,67.4,30.28,SSE,158,0.0,2.4,47,0.00,,,0.00,WUHU216HW,2013-08-25 19:05:00,
2013-08-25 15:10:00,90.8,67.7,30.27,SW,225,0.0,10.5,47,0.00,,,0.00,WUHU216HW,2013-08-25 19:10:00,
2013-08-25 15:15:00,94.6,69.2,30.26,SW,225,0.0,10.5,44,0.00,,,0.00,WUHU216HW,2013-08-25 19:15:00,
2013-08-25 15:20:00,97.5,69.1,30.25,SSE,158,5.1,6.4,40,0.00,,,0.00,WUHU216HW,2013-08-25 19:20:00,
2013-08-25 15:25:00,97.8,69.5,30.25,South,180,7.6,7.6,40,0.00,,,0.00,WUHU216HW,2013-08-25 19:25:00,
2013-08-25 15:30:00,98.2,69.8,30.25,SSW,203,6.0,7.6,40,0.00,,,0.00,WUHU216HW,2013-08-25 19:30:00,
2013-08-25 15:35:00,100.0,70.6,30.25,SW,225,3.1,6.0,39,0.00,,,0.00,WUHU216HW,2013-08-25 19:35:00,
2013-08-25 15:40:00,101.1,69.9,30.25,SSW,203,5.1,6.0,37,0.00,,,0.00,WUHU216HW,2013-08-25 19:40:00,
2013-08-25 15:46:00,101.3,70.0,30.24,NE,45,0.0,6.0,37,0.00,,,0.00,WUHU216HW,2013-08-25 19:46:00,
2013-08-25 15:51:00,100.9,69.7,30.23,SSW,203,1.1,6.0,37,0.00,,,0.00,WUHU216HW,2013-08-25 19:51:00,
2013-08-25 15:56:00,101.1,69.9,30.24,SSE,158,10.5,10.5,37,0.00,,,0.00,WUHU216HW,2013-08-25 19:56:00,
2013-08-25 16:01:00,101.6,69.5,30.23,SSW,203,11.8,11.8,36,0.00,,,0.00,WUHU216HW,2013-08-25 20:01:00,
2013-08-25 16:06:00,101.6,70.3,30.23,SE,135,0.8,13.6,37,0.00,,,0.00,WUHU216HW,2013-08-25 20:06:00,
2013-08-25 16:11:00,102.0,70.7,30.22,SW,225,0.0,13.6,37,0.00,,,0.00,WUHU216HW,2013-08-25 20:11:00,
2013-08-25 16:16:00,102.7,70.5,30.22,SW,225,5.1,5.1,36,0.00,,,0.00,WUHU216HW,2013-08-25 20:16:00,
2013-08-25 16:21:00,102.7,69.6,30.22,SW,225,3.3,5.1,35,0.00,,,0.00,WUHU216HW,2013-08-25 20:21:00,
2013-08-25 16:26:00,100.7,69.6,30.22,NW,315,3.1,6.0,37,0.00,,,0.00,WUHU216HW,2013-08-25 20:26:00,
2013-08-25 16:31:00,100.0,69.8,30.22,SE,135,1.7,6.0,38,0.00,,,0.00,WUHU216HW,2013-08-25 20:31:00,
2013-08-25 16:36:00,99.3,69.1,30.22,SSW,203,6.9,6.9,38,0.00,,,0.00,WUHU216HW,2013-08-25 20:36:00,
2013-08-25 16:41:00,97.8,69.5,30.22,SW,225,4.0,6.9,40,0.00,,,0.00,WUHU216HW,2013-08-25 20:41:00,
2013-08-25 16:46:00,96.6,68.3,30.21,South,180,3.5,4.0,40,0.00,,,0.00,WUHU216HW,2013-08-25 20:46:00,
2013-08-25 16:51:00,95.5,68.0,30.22,ENE,68,0.0,5.5,41,0.00,,,0.00,WUHU216HW,2013-08-25 20:51:00,
2013-08-25 16:57:00,94.6,67.9,30.21,SSE,158,0.0,9.1,42,0.00,,,0.00,WUHU216HW,2013-08-25 20:57:00,
2013-08-25 17:02:00,93.5,68.2,30.21,WSW,248,3.5,9.1,44,0.00,,,0.00,WUHU216HW,2013-08-25 21:02:00,
2013-08-25 17:07:00,92.4,67.8,30.21,SSE,158,6.0,6.0,45,0.00,,,0.00,WUHU216HW,2013-08-25 21:07:00,
2013-08-25 17:12:00,91.2,67.4,30.21,South,180,6.9,9.1,46,0.00,,,0.00,WUHU216HW,2013-08-25 21:12:00,
2013-08-25 17:17:00,90.8,67.7,30.21,SSE,158,2.0,9.1,47,0.00,,,0.00,WUHU216HW,2013-08-25 21:17:00,
2013-08-25 17:22:00,90.8,67.7,30.21,WSW,248,0.0,6.9,47,0.00,,,0.00,WUHU216HW,2013-08-25 21:22:00,
2013-08-25 17:27:00,90.6,67.5,30.20,South,180,1.5,2.2,47,0.00,,,0.00,WUHU216HW,2013-08-25 21:27:00,
2013-08-25 17:32:00,90.6,67.5,30.20,NW,315,0.0,1.5,47,0.00,,,0.00,WUHU216HW,2013-08-25 21:32:00,
2013-08-25 17:37:00,90.6,68.2,30.21,SSE,158,2.0,3.3,48,0.00,,,0.00,WUHU216HW,2013-08-25 21:37:00,
2013-08-25 17:42:00,90.3,67.8,30.20,WNW,293,0.0,3.3,48,0.00,,,0.00,WUHU216HW,2013-08-25 21:42:00,
2013-08-25 17:47:00,89.7,68.0,30.20,NW,315,3.8,5.1,49,0.00,,,0.00,WUHU216HW,2013-08-25 21:47:00,
2013-08-25 17:52:00,89.7,68.0,30.20,SSE,158,3.5,5.1,49,0.00,,,0.00,WUHU216HW,2013-08-25 21:52:00,
2013-08-25 17:57:00,90.1,68.3,30.20,ESE,113,0.0,3.5,49,0.00,,,0.00,WUHU216HW,2013-08-25 21:57:00,
2013-08-25 18:02:00,90.6,68.8,30.20,ESE,113,6.0,6.0,49,0.00,,,0.00,WUHU216HW,2013-08-25 22:02:00,
2013-08-25 18:08:00,93.3,69.3,30.20,ESE,113,2.2,6.0,46,0.00,,,0.00,WUHU216HW,2013-08-25 22:08:00,
2013-08-25 18:13:00,95.1,70.4,30.20,SW,225,4.4,6.0,45,0.00,,,0.00,WUHU216HW,2013-08-25 22:13:00,
2013-08-25 18:18:00,95.9,70.3,30.20,NNW,338,0.0,12.9,44,0.00,,,0.00,WUHU216HW,2013-08-25 22:18:00,
2013-08-25 18:23:00,96.0,69.8,30.20,SSE,158,0.0,12.9,43,0.00,,,0.00,WUHU216HW,2013-08-25 22:23:00,
2013-08-25 18:28:00,96.0,69.2,30.19,SSE,158,6.2,6.4,42,0.00,,,0.00,WUHU216HW,2013-08-25 22:28:00,
2013-08-25 18:33:00,95.5,69.4,30.19,SSW,203,0.0,6.4,43,0.00,,,0.00,WUHU216HW,2013-08-25 22:33:00,
2013-08-25 18:38:00,94.8,69.4,30.19,SSE,158,0.0,4.4,44,0.00,,,0.00,WUHU216HW,2013-08-25 22:38:00,
2013-08-25 18:43:00,94.6,69.2,30.19,SSW,203,1.5,4.4,44,0.00,,,0.00,WUHU216HW,2013-08-25 22:43:00,
2013-08-25 18:48:00,94.4,69.0,30.18,SSW,203,6.9,6.9,44,0.00,,,0.00,WUHU216HW,2013-08-25 22:48:00,
2013-08-25 18:53:00,93.7,68.3,30.19,ENE,68,1.5,6.9,44,0.00,,,0.00,WUHU216HW,2013-08-25 22:53:00,
2013-08-25 18:58:00,91.2,67.4,30.19,WSW,248,5.8,6.9,46,0.00,,,0.00,WUHU216HW,2013-08-25 22:58:00,
2013-08-25 19:03:00,89.7,66.7,30.19,South,180,0.0,5.8,47,0.00,,,0.00,WUHU216HW,2013-08-25 23:03:00,
2013-08-25 19:08:00,88.7,67.0,30.19,South,180,0.0,5.8,49,0.00,,,0.00,WUHU216HW,2013-08-25 23:08:00,
2013-08-25 19:14:00,87.6,66.7,30.20,NE,45,0.0,3.5,50,0.00,,,0.00,WUHU216HW,2013-08-25 23:14:00,
2013-08-25 19:19:00,87.0,66.7,30.20,NNW,338,0.0,3.5,51,0.00,,,0.00,WUHU216HW,2013-08-25 23:19:00,
2013-08-25 19:24:00,86.5,66.3,30.20,SSE,158,1.3,1.3,51,0.00,,,0.00,WUHU216HW,2013-08-25 23:24:00,
2013-08-25 19:29:00,86.1,66.5,30.21,ESE,113,0.0,2.4,52,0.00,,,0.00,WUHU216HW,2013-08-25 23:29:00,
2013-08-25 19:34:00,85.8,66.1,30.21,NNE,23,0.0,2.4,52,0.00,,,0.00,WUHU216HW,2013-08-25 23:34:00,
2013-08-25 19:39:00,85.6,66.0,30.21,NW,315,1.3,2.6,52,0.00,,,0.00,WUHU216HW,2013-08-25 23:39:00,
2013-08-25 19:44:00,85.1,66.0,30.21,South,180,8.9,8.9,53,0.00,,,0.00,WUHU216HW,2013-08-25 23:44:00,
2013-08-25 19:49:00,84.7,65.7,30.21,ESE,113,0.0,8.9,53,0.00,,,0.00,WUHU216HW,2013-08-25 23:49:00,
2013-08-25 19:54:00,84.5,66.0,30.22,SSE,158,2.4,8.9,54,0.00,,,0.00,WUHU216HW,2013-08-25 23:54:00,
2013-08-25 19:59:00,84.3,65.9,30.22,West,270,0.0,3.1,54,0.00,,,0.00,WUHU216HW,2013-08-25 23:59:00,
2013-08-25 20:04:00,84.0,65.5,30.22,SSW,203,0.0,2.4,54,0.00,,,0.00,WUHU216HW,2013-08-26 00:04:00,
2013-08-25 20:09:00,83.8,65.9,30.22,WNW,293,0.0,0.0,55,0.00,,,0.00,WUHU216HW,2013-08-26 00:09:00,
2013-08-25 20:14:00,83.8,65.9,30.22,SSW,203,0.0,4.2,55,0.00,,,0.00,WUHU216HW,2013-08-26 00:14:00,
2013-08-25 20:19:00,83.4,65.5,30.22,SSW,203,2.4,4.2,55,0.00,,,0.00,WUHU216HW,2013-08-26 00:19:00,
2013-08-25 20:24:00,83.3,65.9,30.22,WSW,248,0.0,2.4,56,0.00,,,0.00,WUHU216HW,2013-08-26 00:24:00,
2013-08-25 20:30:00,83.1,65.7,30.23,NW,315,0.0,0.0,56,0.00,,,0.00,WUHU216HW,2013-08-26 00:30:00,
2013-08-25 20:35:00,82.5,65.3,30.23,West,270,0.0,0.0,56,0.00,,,0.00,WUHU216HW,2013-08-26 00:35:00,
2013-08-25 20:40:00,82.2,65.3,30.23,WSW,248,0.0,0.0,57,0.00,,,0.00,WUHU216HW,2013-08-26 00:40:00,
2013-08-25 20:45:00,81.8,65.0,30.24,North,0,0.0,0.0,57,0.00,,,0.00,WUHU216HW,2013-08-26 00:45:00,
2013-08-25 20:50:00,81.3,65.0,30.24,ESE,113,0.0,0.0,58,0.00,,,0.00,WUHU216HW,2013-08-26 00:50:00,
2013-08-25 20:55:00,80.9,65.2,30.23,SW,225,0.0,3.3,59,0.00,,,0.00,WUHU216HW,2013-08-26 00:55:00,
2013-08-25 21:00:00,80.7,65.1,30.24,NNW,338,1.7,3.3,59,0.00,,,0.00,WUHU216HW,2013-08-26 01:00:00,
2013-08-25 21:05:00,80.4,64.7,30.24,WSW,248,0.0,1.7,59,0.00,,,0.00,WUHU216HW,2013-08-26 01:05:00,
2013-08-25 21:10:00,80.2,65.1,30.23,NW,315,0.0,0.0,60,0.00,,,0.00,WUHU216HW,2013-08-26 01:10:00,
2013-08-25 21:15:00,79.8,65.2,30.23,West,270,0.0,2.9,61,0.00,,,0.00,WUHU216HW,2013-08-26 01:15:00,
2013-08-25 21:20:00,79.7,65.1,30.23,SW,225,4.0,4.0,61,0.00,,,0.00,WUHU216HW,2013-08-26 01:20:00,
2013-08-25 21:25:00,79.5,65.3,30.23,NNW,338,0.0,4.0,62,0.00,,,0.00,WUHU216HW,2013-08-26 01:25:00,
2013-08-25 21:30:00,79.7,65.5,30.23,NNE,23,0.0,4.0,62,0.00,,,0.00,WUHU216HW,2013-08-26 01:30:00,
2013-08-25 21:35:00,79.5,65.3,30.23,South,180,0.0,3.8,62,0.00,,,0.00,WUHU216HW,2013-08-26 01:35:00,
2013-08-25 21:41:00,79.3,65.2,30.23,NE,45,0.0,0.0,62,0.00,,,0.00,WUHU216HW,2013-08-26 01:41:00,
2013-08-25 21:46:00,79.1,65.0,30.22,South,180,5.1,5.1,62,0.00,,,0.00,WUHU216HW,2013-08-26 01:46:00,
2013-08-25 21:51:00,79.1,65.4,30.23,SW,225,0.0,5.1,63,0.00,,,0.00,WUHU216HW,2013-08-26 01:51:00,
2013-08-25 21:56:00,78.9,65.3,30.22,South,180,3.3,5.1,63,0.00,,,0.00,WUHU216HW,2013-08-26 01:56:00,
2013-08-25 22:01:00,78.9,65.3,30.23,NNE,23,0.0,3.3,63,0.00,,,0.00,WUHU216HW,2013-08-26 02:01:00,
2013-08-25 22:06:00,78.6,64.9,30.23,SSW,203,0.0,2.4,63,0.00,,,0.00,WUHU216HW,2013-08-26 02:06:00,
2013-08-25 22:11:00,78.6,64.9,30.24,NNE,23,0.0,0.0,63,0.00,,,0.00,WUHU216HW,2013-08-26 02:11:00,
2013-08-25 22:16:00,78.4,65.2,30.24,WNW,293,0.0,0.0,64,0.00,,,0.00,WUHU216HW,2013-08-26 02:16:00,
2013-08-25 22:21:00,78.0,64.4,30.24,SW,225,0.0,0.0,63,0.00,,,0.00,WUHU216HW,2013-08-26 02:21:00,
2013-08-25 22:26:00,77.7,64.5,30.25,SE,135,0.0,0.0,64,0.00,,,0.00,WUHU216HW,2013-08-26 02:26:00,
2013-08-25 22:31:00,77.5,64.3,30.25,West,270,0.0,0.0,64,0.00,,,0.00,WUHU216HW,2013-08-26 02:31:00,
2013-08-25 22:36:00,77.3,64.2,30.25,SSW,203,2.2,2.2,64,0.00,,,0.00,WUHU216HW,2013-08-26 02:36:00,
2013-08-25 22:41:00,77.1,64.4,30.25,SSE,158,0.0,2.2,65,0.00,,,0.00,WUHU216HW,2013-08-26 02:41:00,
2013-08-25 22:46:00,77.1,64.4,30.25,WNW,293,0.0,0.0,65,0.00,,,0.00,WUHU216HW,2013-08-26 02:46:00,
2013-08-25 22:52:00,76.8,64.1,30.25,SE,135,0.0,0.0,65,0.00,,,0.00,WUHU216HW,2013-08-26 02:52:00,
2013-08-25 22:57:00,76.6,63.9,30.25,SSE,158,0.0,0.0,65,0.00,,,0.00,WUHU216HW,2013-08-26 02:57:00,
2013-08-25 23:02:00,76.2,64.0,30.25,WSW,248,0.0,0.0,66,0.00,,,0.00,WUHU216HW,2013-08-26 03:02:00,
2013-08-25 23:07:00,75.9,64.1,30.25,South,180,0.0,0.0,67,0.00,,,0.00,WUHU216HW,2013-08-26 03:07:00,
2013-08-25 23:12:00,75.9,64.1,30.25,SSE,158,0.0,0.0,67,0.00,,,0.00,WUHU216HW,2013-08-26 03:12:00,
2013-08-25 23:17:00,75.5,63.8,30.24,NNE,23,0.0,0.0,67,0.00,,,0.00,WUHU216HW,2013-08-26 03:17:00,
2013-08-25 23:22:00,75.5,64.2,30.24,East,90,0.0,2.9,67,0.00,,,0.00,WUHU216HW,2013-08-26 03:22:00,
2013-08-25 23:27:00,75.5,64.2,30.23,SSW,203,0.0,2.9,68,0.00,,,0.00,WUHU216HW,2013-08-26 03:27:00,
2013-08-25 23:32:00,75.7,64.4,30.23,SW,225,0.0,0.0,68,0.00,,,0.00,WUHU216HW,2013-08-26 03:32:00,
2013-08-25 23:37:00,75.5,64.2,30.23,North,0,0.0,0.0,68,0.00,,,0.00,WUHU216HW,2013-08-26 03:37:00,
2013-08-25 23:42:00,75.3,64.0,30.23,ESE,113,0.0,7.3,68,0.00,,,0.00,WUHU216HW,2013-08-26 03:42:00,
2013-08-25 23:47:00,75.5,64.2,30.24,SE,135,0.0,7.3,68,0.00,,,0.00,WUHU216HW,2013-08-26 03:47:00,
2013-08-25 23:52:00,75.3,64.0,30.23,West,270,0.0,0.0,68,0.00,,,0.00,WUHU216HW,2013-08-26 03:52:00,
2013-08-25 23:57:00,75.3,64.4,30.23,NW,315,0.0,0.0,69,0.00,,,0.00,WUHU216HW,2013-08-26 03:57:00,